Wind_Speed
24 25 26 26 27 28 28 29 29 29 29 30 30 31 31 32 33 34 34 35 35 35 35 36 36 36 36 36 37 38 38 38 39 40 40 41 41 42 42 42 42 42 43
26 27 28 28 29 30 30 30 30 31 31 31 32 32 32 33 33 34 35 35 36 36 36 36 37 37 37 38 38 39 40 40 41 41 42 42 43 43 43 43 43 43 44
28 29 30 30 31 31 31 32 32 32 32 33 33 33 33 34 34 35 35 35 36 36 37 37 37 38 38 39 40 40 41 41 42 42 43 43 43 44 44 44 45 45 45
30 31 31 32 32 32 33 33 33 33 34 34 34 34 34 35 35 35 35 36 36 37 38 38 39 39 39 40 40 41 41 42 42 43 43 44 44 44 44 45 45 45 46
32 32 33 33 34 34 34 34 34 34 34 34 34 35 35 36 36 36 36 37 37 38 38 39 39 40 40 41 42 42 42 43 43 43 44 44 44 45 45 45 45 46 46
33 34 34 34 35 35 34 34 34 35 35 35 35 35 35 36 37 37 37 38 38 39 39 39 40 41 41 42 43 43 43 43 43 43 44 44 45 45 45 45 46 46 47
35 35 35 35 35 35 35 35 35 35 35 36 36 36 36 37 37 38 38 38 39 39 39 40 41 42 43 43 44 44 44 44 44 44 44 45 45 45 46 46 46 47 47
36 36 36 36 36 36 36 36 36 36 36 36 36 37 37 38 38 39 39 40 40 40 41 42 43 43 44 44 44 44 44 45 45 45 45 45 45 46 46 47 47 48 49
36 37 37 37 37 36 36 36 36 36 36 37 37 37 38 38 39 39 40 41 42 42 43 44 44 44 44 44 44 44 44 45 45 45 45 45 45 46 46 47 48 48 49
37 37 38 38 38 37 37 36 36 37 37 37 38 38 39 39 39 40 41 42 43 44 44 44 45 45 44 44 44 44 44 45 45 45 45 46 46 46 47 48 49 50 51
38 38 38 38 38 37 37 37 38 38 38 38 38 39 39 40 41 41 42 43 43 44 44 45 45 45 45 45 45 45 45 46 46 46 46 47 47 48 49 50 51 52 53
39 38 39 39 38 38 38 38 38 38 39 39 39 39 40 41 41 42 42 43 43 44 44 45 45 45 45 45 46 46 47 47 47 48 48 48 49 50 51 53 54 55 56
38 39 39 39 38 38 39 39 39 38 39 39 40 41 41 42 42 43 43 43 43 44 44 45 45 46 46 46 47 47 48 48 49 49 50 51 52 53 55 56 58 59 61
39 40 39 39 39 39 39 39 38 39 40 40 41 41 42 42 43 44 44 44 44 44 44 45 45 46 47 47 47 48 49 49 50 51 52 54 55 57 59 60 62 64 65
40 40 40 39 39 39 39 39 39 40 40 41 41 42 42 43 44 44 44 44 45 45 45 45 46 47 48 48 48 49 50 51 52 53 55 57 59 61 63 65 66 68 70
40 40 40 39 39 39 39 39 40 40 40 41 42 42 43 44 44 45 45 45 46 46 46 46 47 48 49 50 51 51 52 53 55 57 59 61 63 65 67 69 71 73 75
40 40 39 39 39 39 39 40 40 40 41 42 42 42 43 44 45 45 46 46 47 47 47 48 49 50 51 52 53 54 55 56 58 60 63 65 67 69 72 73 75 76 77
39 39 39 39 39 39 40 40 41 41 42 42 42 43 44 45 46 46 47 47 48 48 49 49 50 52 54 55 55 56 58 59 62 64 66 68 70 72 73 75 76 78 78
39 39 38 39 39 39 40 41 41 41 41 42 43 44 45 46 46 47 48 48 49 50 51 52 53 54 56 57 57 59 61 63 65 66 68 70 72 73 75 76 76 76 75
39 38 38 39 39 40 40 41 41 41 42 43 44 45 46 46 47 48 49 50 51 52 53 54 55 57 58 59 60 61 62 64 66 68 69 71 73 74 75 74 73 72 70
38 38 38 38 39 39 40 41 41 42 43 44 45 46 46 47 48 49 50 51 52 54 55 57 58 59 60 61 62 63 64 66 67 69 70 71 72 72 72 71 70 68 65
37 37 37 38 39 39 40 41 42 43 44 45 46 46 47 48 49 50 52 53 54 56 58 59 60 61 62 63 64 65 66 67 68 69 69 68 70 70 71 69 66 63 60
36 37 37 38 38 39 40 41 42 43 44 45 46 47 47 49 50 51 52 54 56 58 60 62 62 63 63 64 65 66 67 68 69 69 68 67 69 69 67 65 62 59 56
36 36 37 37 38 39 40 41 42 43 45 46 46 47 48 50 51 53 54 56 58 60 62 62 63 63 64 65 66 67 67 67 67 67 68 68 67 64 62 60 57 53 51
35 36 37 37 38 39 41 42 43 44 45 46 47 48 50 51 52 54 56 58 60 61 61 62 63 64 64 65 66 66 66 66 65 65 67 66 63 60 57 55 51 49 46
36 36 37 38 39 40 41 42 44 44 45 47 48 49 51 52 54 56 58 59 60 61 62 63 63 64 64 65 65 66 66 65 65 64 64 63 60 56 51 48 46 44 41
Wind_Direction
289 291 293 293 294 294 295 295 294 294 293 293 293 293 294 295 295 295 295 296 296 295 295 294 294 292 291 290 289 287 287 286 285 284 283 283 282 280 279 278 277 276 274
290 292 293 294 294 294 294 293 293 293 292 292 292 293 294 294 295 295 295 295 295 295 294 294 293 292 291 290 289 289 288 287 286 285 284 284 282 281 280 279 277 276 275
290 291 292 293 293 293 293 293 292 292 291 291 291 292 293 294 294 294 294 294 295 295 295 294 293 293 292 291 290 289 289 288 287 286 285 284 283 282 282 281 279 278 276
289 290 290 292 292 292 292 292 291 291 291 291 291 292 293 294 294 294 293 294 294 295 295 294 294 293 292 291 291 290 289 289 288 287 286 285 284 283 282 281 280 279 278
288 289 289 291 291 291 291 291 291 290 290 291 291 292 294 294 294 294 294 294 294 295 295 294 293 293 292 291 291 291 290 289 288 287 287 286 285 284 283 282 281 280 279
288 288 288 289 290 290 290 290 290 290 290 291 291 292 293 294 294 294 294 294 295 295 295 294 294 294 293 293 293 292 291 290 289 289 288 287 286 285 284 283 282 281 280
287 287 287 288 288 289 289 289 289 290 290 290 291 292 293 294 294 294 295 295 295 296 295 295 295 295 295 294 294 293 292 291 290 290 289 288 287 286 285 284 283 282 281
285 286 286 286 287 287 288 288 289 289 289 290 291 292 293 294 294 295 296 296 296 296 296 296 296 296 295 295 294 293 293 292 292 291 290 289 288 287 286 286 284 283 282
284 284 284 285 285 286 287 287 288 289 289 290 291 292 293 293 294 295 296 296 297 297 297 297 296 296 296 295 295 294 294 293 293 292 291 290 289 288 288 287 286 285 284
282 282 283 283 284 284 285 286 287 288 289 290 291 292 293 294 295 296 296 297 297 298 298 298 298 297 297 297 296 296 295 295 294 293 292 291 290 290 289 288 287 287 285
279 280 281 281 282 284 284 285 286 287 288 290 291 292 293 294 295 296 297 297 298 298 298 299 299 298 298 298 298 297 297 296 295 294 293 292 291 291 290 290 289 288 287
278 279 279 280 281 282 283 285 286 287 288 289 290 292 293 294 295 296 297 298 299 299 299 300 300 299 299 299 299 298 298 297 296 295 294 293 293 292 292 291 290 290 289
276 277 278 279 280 282 283 284 285 286 288 289 290 292 293 294 296 296 298 298 299 300 300 300 300 300 300 300 300 299 298 298 297 296 295 294 293 293 292 292 291 291 290
275 275 277 278 279 281 282 283 284 286 287 289 290 292 293 294 296 297 298 298 299 300 300 300 300 300 300 300 300 299 298 297 297 296 295 295 294 294 294 293 292 291 291
273 275 276 277 279 280 281 282 283 286 287 288 290 292 293 295 297 298 298 299 300 300 301 301 300 300 300 300 300 299 298 298 297 296 296 295 295 295 294 294 293 292 292
272 274 274 276 277 279 280 281 284 286 287 289 290 292 293 295 297 298 299 299 300 300 301 301 300 301 301 301 301 300 299 299 298 297 297 297 297 296 296 295 294 294 293
271 272 273 275 276 278 278 280 284 285 287 289 290 292 294 296 298 298 299 300 301 301 301 301 301 301 301 301 301 301 300 300 299 299 299 298 298 298 297 297 296 295 294
271 272 272 274 275 277 278 281 283 285 287 289 291 293 295 296 298 299 300 300 301 301 301 302 302 302 302 302 301 301 301 301 300 300 300 300 300 300 299 299 298 297 296
269 270 271 272 274 276 278 281 283 286 287 289 291 293 295 296 297 299 300 301 301 301 302 302 302 302 302 302 301 301 302 302 302 302 302 302 302 301 301 300 300 300 299
268 269 270 272 274 276 279 281 283 285 288 290 292 294 295 296 298 299 300 301 301 302 302 302 302 303 302 302 302 302 302 303 304 303 303 303 303 303 303 303 302 302 300
267 268 270 272 274 277 279 281 283 286 289 291 293 295 295 296 298 300 301 301 301 302 302 303 303 303 303 303 302 303 303 304 304 305 305 305 305 305 305 304 304 303 302
267 268 270 272 275 277 279 281 284 286 289 292 293 294 296 297 299 300 301 301 302 302 303 303 303 303 303 303 303 304 304 305 305 305 306 306 306 306 306 305 304 304 303
267 268 270 273 275 277 280 282 285 287 290 292 293 295 296 298 299 300 301 302 302 303 304 304 304 304 304 304 304 305 306 307 307 307 307 308 308 308 307 306 305 304 304
266 268 270 273 275 278 281 283 286 288 290 292 294 295 297 299 299 300 301 302 303 303 304 304 305 305 305 305 305 306 307 308 308 308 309 310 309 309 308 307 306 305 305
266 269 272 275 277 279 282 284 286 289 290 292 294 296 297 299 299 300 301 302 303 303 304 305 305 305 305 306 307 307 308 309 309 310 310 311 310 310 309 307 307 306 306
268 271 274 276 279 281 283 285 287 289 291 293 294 296 297 298 299 301 302 303 303 303 304 305 305 305 306 306 307 308 309 310 310 311 311 311 311 310 310 308 307 306 306
Height
5843 5842 5841 5839 5838 5836 5834 5833 5831 5829 5827 5825 5822 5820 5818 5815 5812 5810 5807 5804 5802 5799 5796 5793 5791 5788 5785 5782 5780 5777 5775 5772 5770 5767 5765 5763 5760 5758 5756 5755 5753 5752 5750
5838 5837 5835 5834 5832 5830 5829 5827 5825 5823 5821 5818 5816 5814 5811 5809 5806 5803 5800 5797 5795 5792 5789 5786 5783 5780 5777 5774 5771 5769 5766 5763 5761 5758 5756 5753 5751 5749 5747 5745 5743 5742 5740
5833 5831 5830 5828 5826 5824 5823 5821 5819 5817 5814 5812 5810 5807 5805 5802 5799 5796 5793 5790 5787 5784 5781 5778 5775 5772 5769 5766 5763 5760 5757 5754 5752 5749 5746 5744 5741 5739 5737 5735 5733 5731 5730
5827 5825 5824 5822 5820 5818 5816 5814 5812 5810 5808 5805 5803 5801 5798 5795 5792 5789 5786 5783 5780 5777 5774 5770 5767 5764 5761 5757 5754 5751 5748 5745 5742 5739 5737 5734 5732 5729 5727 5725 5723 5721 5719
5820 5819 5817 5815 5813 5812 5810 5808 5806 5803 5801 5798 5796 5793 5791 5788 5785 5782 5779 5775 5772 5769 5766 5762 5759 5756 5752 5749 5746 5742 5739 5736 5733 5730 5727 5724 5721 5719 5716 5714 5712 5710 5708
5813 5812 5810 5809 5807 5805 5803 5801 5799 5796 5794 5791 5789 5786 5783 5780 5777 5774 5771 5768 5764 5761 5757 5754 5750 5747 5743 5740 5736 5733 5729 5726 5723 5720 5717 5714 5711 5708 5706 5703 5701 5699 5697
5806 5804 5803 5801 5799 5798 5796 5793 5791 5789 5786 5784 5781 5779 5776 5773 5770 5766 5763 5759 5756 5752 5749 5745 5742 5738 5734 5730 5727 5723 5720 5716 5713 5709 5706 5703 5700 5698 5695 5692 5690 5687 5685
5798 5797 5795 5793 5792 5790 5788 5786 5784 5781 5779 5776 5774 5771 5768 5766 5762 5758 5755 5751 5747 5744 5740 5736 5733 5729 5725 5721 5717 5713 5710 5706 5702 5699 5696 5693 5690 5687 5684 5681 5678 5676 5673
5790 5789 5787 5786 5784 5782 5780 5778 5776 5774 5772 5769 5766 5764 5761 5758 5754 5751 5747 5743 5739 5735 5731 5727 5723 5719 5715 5711 5707 5703 5699 5696 5692 5688 5685 5682 5678 5675 5672 5669 5666 5664 5661
5782 5781 5779 5777 5776 5774 5772 5770 5768 5766 5764 5761 5758 5755 5753 5749 5746 5743 5739 5734 5730 5726 5722 5718 5713 5709 5705 5701 5697 5693 5689 5685 5681 5678 5674 5671 5667 5664 5661 5657 5654 5651 5648
5774 5772 5771 5769 5767 5766 5764 5762 5760 5758 5755 5753 5750 5747 5744 5741 5737 5734 5730 5726 5721 5716 5712 5708 5703 5699 5695 5691 5687 5682 5678 5674 5671 5667 5663 5659 5655 5652 5648 5645 5641 5638 5634
5765 5764 5762 5761 5759 5757 5756 5754 5752 5750 5747 5745 5742 5739 5736 5732 5728 5725 5721 5717 5712 5707 5703 5698 5694 5689 5685 5680 5676 5672 5667 5663 5659 5655 5651 5647 5643 5639 5635 5631 5627 5624 5620
5756 5755 5753 5752 5751 5749 5747 5745 5743 5741 5739 5736 5733 5730 5727 5723 5720 5716 5712 5708 5703 5698 5693 5689 5684 5679 5675 5670 5666 5661 5656 5652 5648 5643 5639 5635 5630 5626 5622 5617 5613 5608 5603
5747 5746 5745 5743 5742 5740 5739 5737 5735 5732 5730 5727 5724 5721 5718 5714 5711 5707 5703 5698 5694 5689 5684 5679 5674 5669 5664 5660 5655 5650 5645 5641 5636 5631 5626 5621 5617 5612 5607 5602 5596 5591 5586
5737 5737 5736 5735 5733 5732 5730 5728 5726 5724 5721 5719 5716 5712 5709 5705 5701 5697 5693 5689 5685 5680 5676 5670 5664 5659 5654 5649 5644 5639 5634 5629 5623 5618 5613 5607 5602 5596 5590 5585 5579 5572 5566
5728 5727 5726 5725 5724 5723 5721 5719 5717 5715 5712 5710 5706 5703 5700 5696 5692 5688 5683 5679 5674 5669 5665 5660 5654 5649 5643 5638 5632 5627 5621 5616 5610 5604 5598 5592 5586 5579 5573 5566 5559 5552 5545
5718 5718 5717 5716 5715 5713 5712 5710 5708 5706 5703 5700 5697 5694 5690 5686 5682 5678 5673 5668 5663 5658 5654 5649 5643 5637 5632 5626 5620 5614 5608 5602 5596 5589 5582 5575 5568 5561 5553 5546 5538 5530 5522
5708 5708 5707 5707 5705 5704 5702 5701 5699 5696 5694 5691 5687 5684 5680 5676 5672 5667 5662 5657 5652 5647 5643 5638 5632 5626 5620 5613 5607 5601 5594 5588 5581 5573 5566 5558 5549 5541 5533 5524 5515 5507 5498
5699 5698 5698 5697 5696 5695 5693 5691 5689 5687 5684 5681 5678 5674 5670 5666 5661 5656 5651 5646 5641 5636 5631 5626 5620 5614 5607 5600 5594 5588 5580 5573 5565 5557 5548 5540 5531 5521 5512 5503 5493 5484 5475
5689 5689 5688 5687 5686 5685 5683 5681 5679 5677 5674 5671 5667 5663 5659 5655 5650 5645 5640 5635 5629 5624 5618 5613 5607 5601 5594 5587 5580 5573 5566 5558 5549 5540 5531 5521 5512 5502 5492 5482 5473 5464 5455
5679 5679 5678 5677 5676 5675 5674 5671 5669 5666 5664 5660 5657 5653 5648 5644 5639 5634 5629 5623 5617 5612 5606 5599 5593 5587 5580 5572 5565 5557 5551 5543 5535 5524 5515 5505 5494 5484 5473 5463 5453 5444 5436
5669 5669 5668 5668 5667 5665 5663 5661 5659 5656 5653 5650 5646 5642 5637 5632 5627 5622 5617 5611 5605 5598 5592 5585 5579 5572 5565 5557 5549 5541 5534 5527 5520 5510 5499 5490 5477 5467 5455 5445 5436 5427 5419
5660 5659 5659 5658 5657 5655 5653 5651 5648 5646 5643 5639 5635 5630 5626 5621 5616 5610 5604 5598 5592 5584 5577 5571 5564 5556 5548 5541 5534 5526 5517 5508 5500 5490 5481 5474 5461 5450 5438 5428 5419 5411 5404
5650 5649 5649 5648 5646 5645 5643 5640 5638 5635 5632 5628 5624 5619 5614 5609 5603 5598 5592 5586 5579 5571 5563 5555 5548 5541 5532 5524 5516 5509 5500 5493 5484 5473 5462 5456 5446 5435 5424 5413 5404 5397 5390
5640 5639 5639 5637 5636 5634 5632 5630 5627 5624 5620 5617 5612 5607 5602 5597 5591 5585 5579 5573 5566 5557 5549 5540 5533 5525 5516 5508 5500 5492 5484 5476 5469 5460 5447 5438 5430 5421 5412 5401 5392 5384 5378
5630 5629 5628 5627 5626 5624 5621 5618 5615 5613 5609 5605 5600 5595 5590 5584 5578 5571 5565 5558 5551 5543 5535 5527 5519 5510 5501 5493 5484 5475 5467 5459 5451 5444 5434 5424 5415 5406 5401 5392 5382 5374 5368